User: anonymous   Login
Location: Edoum�
(0.9447°N, 10.6482°E)
Time: 05:05:49
(UTC+00:00)
Language:

deb Kosmos-1486 - Orbit

View from above orbital plane
View from above orbital plane
View from above satellite
View from above satellite

Ground track
Ground track

The orbit data is extracted from the following two-line orbital elements,

1 15756U 83079D   20330.58412042 +.00000560 +00000-0 +10649-3 0  9999
2 15756 074.0484 165.2907 0008831 134.0987 226.0910 14.66537081879471
Epoch (UTC): 25 November 2020 14:01:08
Eccentricity: 0.0008831
inclination: 74.0484°
perigee height: 666 km
apogee height: 678 km
right ascension of ascending node: 165.2907°
argument of perigee: 134.0987°
revolutions per day: 14.66537081
mean anomaly at epoch: 226.0910°
orbit number at epoch: 87947

The dashed part of the orbit path shows where the satellite is in the earth's shadow,  

DLR